Home   Weather   Mashhad   Past weeks

Flag for Iran Past Weather in Mashhad, Iran — Yesterday and Last 2 Weeks

Now
36 °F

Fog.


Feels Like: 32 °F
Forecast: 29 / 38 °F
Wind: 5 mph from Southeast

Location: Mashhad Airport

Current Time: Jan 22, 2017 at 9:55:56 pm

Latest Report: Jan 22, 2017 at 9:30 pm


Visibility: 1 mi

Pressure: 30.09 "Hg (26.64 "Hg at 981m altitude)

Humidity: 93%

Dew Point: 34 °F

Location of MashhadLocation

Past Weather in Mashhad — Graph

°F

Mashhad Temperature Yesterday

Maximum temperature yesterday: 45 °F (at 2:00 pm)
Minimum temperature yesterday: 34 °F (at 12:00 am)
Average temperature yesterday: 38 °F

High & Low Weather Summary for the Past Weeks

 TemperatureHumidityPressure
High61 °F (Jan 10, 2:30 pm)100% (Jan 11, 7:30 pm)30.33 "Hg (Jan 11, 7:30 pm)
Low25 °F (Jan 8, 6:30 am)13% (Jan 9, 2:00 pm)29.89 "Hg (Jan 13, 1:00 pm)
Average37 °F63%30.12 "Hg
* Reported Jan 7 8:30 pm — Jan 22 8:30 pm, Mashhad, Weather by CustomWeather, © 2017

Note: Actual official high and low records may vary slightly from our data, if they occured in-between our weather recording intervals... More about our weather records

Advertising

Mashhad Weather History for the Previous 24 Hours

Scroll right to see more
 ConditionsComfort  
Time TempWeatherWind HumidityBarometerVisibility
8:30 pm
Sun, Jan 22
37 °FFog.No wind87%30.09 "Hg2 mi
8:00 pm37 °FFog.No wind93%30.09 "Hg2 mi
7:30 pm39 °FFog.5 mph93%30.09 "Hg2 mi
7:00 pm39 °FFog.No wind93%30.09 "Hg2 mi
6:30 pm39 °FFog.5 mph100%30.07 "Hg2 mi
6:00 pm39 °FFog.5 mph100%30.07 "Hg2 mi
5:30 pm39 °FFog.5 mph93%30.07 "Hg2 mi
5:00 pm39 °FFog.No wind93%30.07 "Hg1 mi
4:30 pm41 °FFog.No wind100%30.07 "Hg1 mi
4:00 pm39 °FFog.5 mph100%30.07 "Hg1 mi
3:30 pm39 °FFog.5 mph100%30.07 "Hg1 mi
3:00 pm39 °FFog.No wind100%30.04 "Hg1 mi
2:30 pm37 °FFog.No wind100%30.04 "Hg1 mi
2:00 pm39 °FFog.5 mph100%30.07 "Hg1 mi
1:30 pm39 °FFog.7 mph100%30.07 "Hg1 mi
1:00 pm39 °FFog.5 mph100%30.07 "Hg1 mi
12:30 pm39 °FFog.7 mph100%30.07 "Hg1 mi
12:00 pm39 °FFog.7 mph100%30.07 "Hg1 mi
11:30 am37 °FFog.7 mph100%30.09 "Hg1 mi
11:00 am37 °FFog.7 mph100%30.12 "Hg1 mi
10:30 am37 °FFog.9 mph100%30.12 "Hg1 mi
10:00 am37 °FFog.7 mph100%30.12 "Hg1 mi
9:30 am37 °FLight rain. Fog.9 mph100%30.12 "Hg1 mi
9:00 am37 °FFog.5 mph100%30.12 "Hg1 mi
8:30 am37 °FFog.7 mph100%30.12 "Hg1 mi
8:00 am37 °FFog.7 mph93%30.09 "Hg1 mi
7:30 am37 °FFog.5 mph93%30.09 "Hg1 mi
7:00 am37 °FFog.5 mph93%30.09 "Hg1 mi
6:30 am36 °FFog.5 mph100%30.07 "Hg1 mi
6:00 am37 °FFog.5 mph93%30.07 "Hg2 mi
5:30 am37 °FOvercast.7 mph93%30.07 "Hg5 mi
5:00 am39 °FFog.5 mph87%30.07 "Hg3 mi
4:30 am37 °FFog.No wind93%30.07 "Hg2 mi
4:00 am39 °FFog.No wind87%30.07 "Hg2 mi
3:30 am39 °FFog.No wind87%30.07 "Hg2 mi
3:00 am39 °FMostly cloudy.5 mph87%30.07 "Hg4 mi
2:30 am39 °FOvercast.5 mph81%30.07 "Hg5 mi
2:00 am41 °FMostly cloudy.No wind76%30.07 "Hg5 mi
1:30 am41 °FMostly cloudy.No wind76%30.07 "Hg5 mi
1:00 am41 °FMostly cloudy.5 mph76%30.09 "Hg5 mi
12:30 am41 °FMostly cloudy.7 mph76%30.09 "Hg5 mi
12:00 am39 °FPassing clouds.5 mph87%30.09 "HgN/A
11:30 pm
Sat, Jan 21
37 °FPassing clouds.5 mph93%30.09 "HgN/A
11:00 pm37 °FPassing clouds.No wind87%30.07 "HgN/A
10:30 pm39 °FPassing clouds.5 mph87%30.07 "HgN/A
10:00 pm39 °FPassing clouds.7 mph87%30.09 "HgN/A
9:30 pm39 °FPassing clouds.7 mph87%30.09 "HgN/A
9:00 pm37 °FClear.5 mph93%30.09 "Hg10 mi
Weather by CustomWeather, © 2017

See weather overviewHow to use our weather pages